Alicia, AR

8:52 AM CST on February 06, 2016 (GMT -0600)
Walnut Ridge Regional

Weather History for KARG - November, 2014

Change the Weather History Date:

Monday, November 10, 2014

  Actual Average Record
Temperature  
Mean Temperature 55 °F -  
Max Temperature 68 °F 57 °F 78 °F (2002)
Min Temperature 42 °F 40 °F 30 °F (2008)
Degree Days  
Heating Degree Days 10    
Growing Degree Days 5 (Base 50)    
Moisture  
Dew Point 44 °F    
Average Humidity 69    
Maximum Humidity 93    
Minimum Humidity 46    
Precipitation  
Precipitation 0.00 in - - ()
Sea Level Pressure  
Sea Level Pressure 29.77 in    
Wind  
Wind Speed 14 mph (South)    
Max Wind Speed 26 mph    
Max Gust Speed 34 mph    
Visibility 10 miles    
Events      
Averages and records for this station are not official NWS values.
T = Trace of Precipitation, MM = Missing Value Source: NWS Daily Summary

Daily Weather History Graph

Daily Weather History Graph

Search for Another Location

Airport or City:

Trip Planner

Search our weather history database for the weather conditions in past years. The results will help you decide how hot, cold, wet, or windy it might be!

Date:

Astronomy

Nov. 10, 2014 Rise Set
Actual Time 6:35 AM CST 4:59 PM CST
Civil Twilight 6:08 AM CST 5:26 PM CST
Nautical Twilight 5:37 AM CST 5:57 PM CST
Astronomical Twilight 5:07 AM CST 6:27 PM CST
Moon 8:28 PM CST (11/10) 9:56 AM CST (11/10)
Length of Visible Light 11h 18m
Length of Day
10h 24m
Waning Gibbous, 84% of the Moon is Illuminated
Nov 10
Waning Gibbous
Nov 14
Last Quarter
Nov 22
New
Nov 29
First Quarter
Dec 6
Full

Hourly Weather History & Observations

Time (CST) Temp. Windchill Dew Point Humidity Pressure Visibility Wind Dir Wind Speed Gust Speed Precip Events Conditions
12:15 AM 44.6 °F 40.2 °F 39.2 °F 81% 29.90 in 10.0 mi South 8.1 mph - N/A   Clear
12:35 AM 44.6 °F 40.7 °F 39.2 °F 81% 29.90 in 10.0 mi South 6.9 mph - N/A   Clear
12:55 AM 42.8 °F 38.0 °F 39.2 °F 87% 29.89 in 10.0 mi South 8.1 mph - N/A   Clear
1:15 AM 42.8 °F 38.6 °F 39.2 °F 87% 29.88 in 10.0 mi South 6.9 mph - N/A   Clear
1:35 AM 42.8 °F 38.6 °F 39.2 °F 87% 29.87 in 10.0 mi South 6.9 mph - N/A   Clear
1:55 AM 42.8 °F 38.6 °F 39.2 °F 87% 29.87 in 10.0 mi South 6.9 mph - N/A   Clear
2:15 AM 42.8 °F 38.6 °F 39.2 °F 87% 29.87 in 10.0 mi South 6.9 mph - N/A   Clear
2:35 AM 44.6 °F 40.2 °F 41.0 °F 87% 29.87 in 10.0 mi South 8.1 mph - N/A   Clear
2:55 AM 42.8 °F 38.0 °F 39.2 °F 87% 29.87 in 10.0 mi South 8.1 mph - N/A   Clear
3:15 AM 44.6 °F 39.2 °F 41.0 °F 87% 29.87 in 10.0 mi South 10.4 mph - N/A   Clear
3:35 AM 44.6 °F 38.8 °F 41.0 °F 87% 29.87 in 10.0 mi South 11.5 mph - N/A   Clear
3:55 AM 44.6 °F 38.8 °F 41.0 °F 87% 29.86 in 10.0 mi South 11.5 mph - N/A   Clear
4:15 AM 44.6 °F 39.2 °F 41.0 °F 87% 29.86 in 10.0 mi South 10.4 mph - N/A   Clear
4:35 AM 44.6 °F 39.2 °F 41.0 °F 87% 29.86 in 10.0 mi South 10.4 mph - N/A   Clear
4:55 AM 44.6 °F 39.2 °F 41.0 °F 87% 29.86 in 10.0 mi South 10.4 mph - N/A   Clear
5:15 AM 44.6 °F 38.4 °F 41.0 °F 87% 29.86 in 10.0 mi South 12.7 mph - N/A   Clear
5:35 AM 44.6 °F 38.1 °F 42.8 °F 93% 29.86 in 10.0 mi South 13.8 mph - N/A   Clear
5:55 AM 44.6 °F 37.8 °F 42.8 °F 93% 29.85 in 10.0 mi South 15.0 mph - N/A   Clear
6:15 AM 44.6 °F 39.2 °F 42.8 °F 93% 29.85 in 10.0 mi South 10.4 mph - N/A   Clear
6:35 AM 44.6 °F 38.4 °F 42.8 °F 93% 29.85 in 10.0 mi South 12.7 mph - N/A   Clear
6:55 AM 44.6 °F 39.2 °F 42.8 °F 93% 29.85 in 10.0 mi South 10.4 mph - N/A   Clear
7:15 AM 46.4 °F 41.9 °F 42.8 °F 87% 29.83 in 10.0 mi South 9.2 mph - N/A   Clear
7:35 AM 48.2 °F - 42.8 °F 82% 29.83 in 10.0 mi South 16.1 mph 19.6 mph N/A   Clear
7:55 AM 48.2 °F - 44.6 °F 87% 29.84 in 10.0 mi South 16.1 mph - N/A   Clear
8:15 AM 51.8 °F - 44.6 °F 76% 29.85 in 10.0 mi SSW 17.3 mph - N/A   Clear
8:35 AM 51.8 °F - 44.6 °F 76% 29.84 in 10.0 mi South 11.5 mph - N/A   Clear
8:55 AM 53.6 °F - 44.6 °F 72% 29.84 in 10.0 mi South 16.1 mph - N/A   Clear
9:15 AM 53.6 °F - 46.4 °F 77% 29.83 in 10.0 mi South 17.3 mph 25.3 mph N/A   Clear
9:35 AM 55.4 °F - 46.4 °F 72% 29.83 in 10.0 mi South 21.9 mph 27.6 mph N/A   Clear
9:55 AM 57.2 °F - 46.4 °F 67% 29.82 in 10.0 mi South 18.4 mph 25.3 mph N/A   Clear
10:15 AM 60.8 °F - 46.4 °F 59% 29.82 in 10.0 mi South 23.0 mph - N/A   Clear
10:35 AM 62.6 °F - 46.4 °F 55% 29.82 in 10.0 mi South 21.9 mph 27.6 mph N/A   Clear
10:55 AM 62.6 °F - 46.4 °F 55% 29.81 in 10.0 mi SSW 23.0 mph - N/A   Clear
11:15 AM 60.8 °F - 46.4 °F 59% 29.79 in 10.0 mi South 20.7 mph - N/A   Clear
11:35 AM 57.2 °F - 46.4 °F 67% 29.78 in 10.0 mi South 25.3 mph 31.1 mph N/A   Clear
11:55 AM 59.0 °F - 46.4 °F 63% 29.76 in 10.0 mi South 24.2 mph 32.2 mph N/A   Clear
12:15 PM 57.2 °F - 48.2 °F 72% 29.74 in 10.0 mi South 21.9 mph 31.1 mph N/A   Clear
12:35 PM 59.0 °F - 46.4 °F 63% 29.72 in 10.0 mi South 24.2 mph 29.9 mph N/A   Clear
12:55 PM 60.8 °F - 48.2 °F 63% 29.71 in 10.0 mi South 25.3 mph 32.2 mph N/A   Clear
1:15 PM 60.8 °F - 46.4 °F 59% 29.70 in 10.0 mi South 24.2 mph 33.4 mph N/A   Clear
1:35 PM 62.6 °F - 46.4 °F 55% 29.69 in 10.0 mi South 26.5 mph 33.4 mph N/A   Clear
1:55 PM 64.4 °F - 48.2 °F 56% 29.69 in 10.0 mi South 26.5 mph 34.5 mph N/A   Clear
2:15 PM 64.4 °F - 46.4 °F 52% 29.69 in 10.0 mi South 24.2 mph 32.2 mph N/A   Clear
2:35 PM 66.2 °F - 46.4 °F 49% 29.68 in 10.0 mi South 26.5 mph 34.5 mph N/A   Clear
2:55 PM 68.0 °F - 46.4 °F 46% 29.68 in 10.0 mi South 23.0 mph 33.4 mph N/A   Clear
3:15 PM 68.0 °F - 46.4 °F 46% 29.67 in 10.0 mi South 18.4 mph 27.6 mph N/A   Clear
3:35 PM 68.0 °F - 46.4 °F 46% 29.67 in 10.0 mi South 18.4 mph 26.5 mph N/A   Clear
3:55 PM 66.2 °F - 46.4 °F 49% 29.66 in 10.0 mi South 21.9 mph 26.5 mph N/A   Clear
4:15 PM 66.2 °F - 44.6 °F 46% 29.66 in 10.0 mi South 21.9 mph 27.6 mph N/A   Clear
4:35 PM 64.4 °F - 44.6 °F 49% 29.66 in 10.0 mi South 17.3 mph 24.2 mph N/A   Clear
4:55 PM 64.4 °F - 44.6 °F 49% 29.66 in 10.0 mi South 18.4 mph - N/A   Clear
5:15 PM 64.4 °F - 44.6 °F 49% 29.68 in 10.0 mi South 13.8 mph 21.9 mph N/A   Clear
5:35 PM 62.6 °F - 44.6 °F 52% 29.69 in 10.0 mi South 15.0 mph - N/A   Clear
5:55 PM 62.6 °F - 44.6 °F 52% 29.70 in 10.0 mi South 12.7 mph - N/A   Clear
6:15 PM 60.8 °F - 44.6 °F 55% 29.69 in 10.0 mi South 17.3 mph - N/A   Clear
6:35 PM 60.8 °F - 46.4 °F 59% 29.69 in 10.0 mi South 16.1 mph - N/A   Clear
6:55 PM 60.8 °F - 46.4 °F 59% 29.69 in 10.0 mi South 18.4 mph - N/A   Clear
7:15 PM 60.8 °F - 44.6 °F 55% 29.69 in 10.0 mi South 19.6 mph - N/A   Clear
7:35 PM 60.8 °F - 44.6 °F 55% 29.68 in 10.0 mi South 21.9 mph 27.6 mph N/A   Clear
7:55 PM 60.8 °F - 44.6 °F 55% 29.68 in 10.0 mi South 23.0 mph 29.9 mph N/A   Clear
8:15 PM 59.0 °F - 44.6 °F 59% 29.68 in 10.0 mi South 21.9 mph 26.5 mph N/A   Clear
8:35 PM 59.0 °F - 44.6 °F 59% 29.69 in 10.0 mi South 23.0 mph 28.8 mph N/A   Clear
8:55 PM 59.0 °F - 44.6 °F 59% 29.69 in 10.0 mi South 19.6 mph 25.3 mph N/A   Clear
9:15 PM 57.2 °F - 44.6 °F 63% 29.70 in 10.0 mi South 18.4 mph - N/A   Clear
9:35 PM 57.2 °F - 44.6 °F 63% 29.71 in 10.0 mi South 16.1 mph - N/A   Clear
9:55 PM 57.2 °F - 44.6 °F 63% 29.72 in 10.0 mi South 11.5 mph - N/A   Clear
10:15 PM 57.2 °F - 44.6 °F 63% 29.73 in 10.0 mi South 9.2 mph - N/A   Clear
10:35 PM 57.2 °F - 46.4 °F 67% 29.74 in 10.0 mi SSW 11.5 mph - N/A   Clear
10:55 PM 55.4 °F - 46.4 °F 72% 29.75 in 10.0 mi SSW 10.4 mph - N/A   Clear
11:15 PM 55.4 °F - 46.4 °F 72% 29.74 in 10.0 mi South 12.7 mph - N/A   Clear
11:35 PM 55.4 °F - 46.4 °F 72% 29.75 in 10.0 mi South 8.1 mph - N/A   Clear
11:55 PM 53.6 °F - 46.4 °F 77% 29.75 in 10.0 mi SSE 11.5 mph - N/A   Clear